OH5GWF-1 Weather Reports


Display with metric or nautical units.
time (UTC)temp
F
wind
direction
speed
MPH
gust
MPH
rain 1hr
in
rain 24hr
in
rain mn
in
humidity
%
barometer
mb
20260831174754 60 249 3.0 3.0 0.00 0.34 0.34 84 1005.6
20260831174051 60 249 3.0 3.0 0.00 0.34 0.34 84 1005.6
20260831173349 60 249 3.0 3.0 0.00 0.34 0.34 84 1005.5
20260831172658 60 249 3.0 3.0 0.00 0.34 0.34 84 1005.5
20260831171956 61 249 3.0 3.0 0.00 0.34 0.34 84 1005.5
20260831171252 61 249 3.0 3.0 0.00 0.34 0.34 84 1005.5
20260831170550 61 249 3.0 3.0 0.00 0.34 0.34 84 1005.4
20260831165849 61 249 3.0 3.0 0.00 0.34 0.34 84 1005.4
20260831165148 61 249 3.0 3.0 0.00 0.34 0.34 84 1005.4
20260831164458 61 249 3.0 3.0 0.00 0.34 0.34 84 1005.3
20260831163757 61 249 3.0 3.0 0.00 0.34 0.34 84 1005.2
20260831163054 61 249 3.0 3.0 0.00 0.34 0.34 84 1005.2
20260831162352 62 249 3.0 3.0 0.00 0.34 0.34 84 1005.2
20260831161649 62 249 3.0 3.0 0.00 0.34 0.34 84 1005.1
20260831160947 62 249 3.0 3.0 0.00 0.34 0.34 84 1005.2
20260831160257 62 249 3.0 3.0 0.00 0.34 0.34 84 1005.1
20260831155554 63 249 3.0 3.0 0.00 0.34 0.34 83 1005.0
20260831154852 63 249 3.0 3.0 0.00 0.34 0.34 83 1005.0
20260831154149 63 249 3.0 3.0 0.00 0.34 0.34 83 1005.0
20260831153447 63 249 3.0 3.0 0.00 0.34 0.34 83 1005.0
20260831152756 64 249 3.0 3.0 0.00 0.34 0.34 83 1004.9
20260831152055 64 249 3.0 3.0 0.00 0.34 0.34 83 1004.9
20260831151352 64 249 3.0 3.0 0.00 0.34 0.34 84 1005.0
20260831150649 65 249 3.0 3.0 0.00 0.34 0.34 84 1005.0
20260831145948 66 249 3.0 3.0 0.00 0.34 0.34 83 1005.1
20260831145247 66 249 3.0 3.0 0.00 0.34 0.34 83 1005.0
20260831144557 65 249 3.0 3.0 0.00 0.34 0.34 84 1005.1
20260831143855 65 249 3.0 3.0 0.00 0.34 0.34 84 1005.1
20260831143152 65 249 3.0 3.0 0.00 0.34 0.34 84 1005.0
20260831142450 66 249 3.0 3.0 0.00 0.34 0.34 84 1005.0
20260831141748 66 249 3.0 3.0 0.00 0.34 0.34 84 1004.9
20260831141057 66 249 3.0 3.0 0.00 0.34 0.34 84 1005.0
20260831140723 67 249 3.0 3.0 0.00 0.34 0.34 84 1005.0
20260831140354 67 249 3.0 3.0 0.00 0.34 0.34 83 1005.1
20260831135653 67 249 3.0 3.0 0.00 0.34 0.34 83 1005.0
20260831135618 67 249 3.0 3.0 0.00 0.34 0.34 83 1005.1
20260831134953 67 249 3.0 3.0 0.00 0.34 0.34 83 1005.0
20260831134516 67 249 3.0 3.0 0.00 0.34 0.34 83 1005.0
20260831134250 67 249 3.0 3.0 0.00 0.34 0.34 83 1005.0
20260831133549 68 249 3.0 3.0 0.00 0.34 0.34 84 1005.0
20260831133426 68 249 3.0 3.0 0.00 0.34 0.34 83 1005.0
20260831132848 68 249 3.0 3.0 0.00 0.34 0.34 83 1005.1
20260831132325 67 249 3.0 3.0 0.00 0.34 0.34 83 1005.0
20260831132147 66 249 3.0 3.0 0.00 0.34 0.34 84 1005.0
20260831131446 65 249 3.0 3.0 0.04 0.34 0.34 84 1005.0
20260831131223 65 249 3.0 3.0 0.06 0.34 0.34 84 1005.1
20260831130757 64 249 3.0 3.0 0.06 0.34 0.34 84 1005.1
20260831130054 63 249 3.0 3.0 0.08 0.34 0.34 85 1005.1
20260831125352 62 249 3.0 3.0 0.10 0.34 0.34 85 1005.1
20260831125015 62 249 3.0 3.0 0.12 0.34 0.34 85 1005.1
20260831124650 62 249 3.0 3.0 0.12 0.34 0.34 85 1005.1
20260831123926 62 249 3.0 3.0 0.12 0.34 0.34 85 1005.0
20260831123246 62 249 3.0 3.0 0.12 0.34 0.34 85 1005.0
20260831122822 62 249 3.0 3.0 0.12 0.34 0.34 85 1005.1
20260831122555 62 249 3.0 3.0 0.12 0.34 0.34 85 1005.0
20260831121853 61 249 3.0 3.0 0.14 0.34 0.34 85 1005.0
20260831121718 61 249 3.0 3.0 0.12 0.32 0.32 85 1005.0
20260831121151 61 249 3.0 3.0 0.08 0.28 0.28 85 1005.0
20260831120615 61 249 3.0 3.0 0.08 0.28 0.28 85 1005.0
20260831120449 61 249 3.0 3.0 0.08 0.28 0.28 85 1005.0
20260831115748 61 249 3.0 3.0 0.04 0.24 0.24 85 1005.1
20260831115525 61 249 3.0 3.0 0.04 0.24 0.24 85 1005.1
20260831115047 61 249 3.0 3.0 0.04 0.24 0.24 85 1005.1
20260831114358 61 249 3.0 3.0 0.02 0.22 0.22 85 1005.1
20260831113656 61 249 3.0 3.0 0.02 0.22 0.22 85 1005.2
20260831113321 61 249 3.0 3.0 0.02 0.22 0.22 85 1005.2
20260831112954 61 249 3.0 3.0 0.02 0.22 0.22 85 1005.3
20260831112252 60 249 3.0 3.0 0.00 0.20 0.20 85 1005.3
20260831112217 60 249 3.0 3.0 0.00 0.20 0.20 85 1005.3
20260831111549 60 249 3.0 3.0 0.00 0.22 0.20 85 1005.4
20260831111125 60 249 3.0 3.0 0.02 0.22 0.20 85 1005.4
20260831110847 60 249 3.0 3.0 0.02 0.22 0.20 85 1005.3
20260831110157 60 249 3.0 3.0 0.02 0.22 0.20 85 1005.3
20260831110021 60 249 3.0 3.0 0.02 0.22 0.20 85 1005.3
20260831105454 60 249 3.0 3.0 0.02 0.22 0.20 85 1005.4
20260831104918 60 249 3.0 3.0 0.02 0.22 0.20 85 1005.4
20260831104752 60 249 3.0 3.0 0.02 0.22 0.20 85 1005.4
20260831104050 60 249 3.0 3.0 0.04 0.24 0.20 85 1005.5
20260831103827 60 249 3.0 3.0 0.04 0.24 0.20 85 1005.5
20260831103348 60 249 3.0 3.0 0.04 0.24 0.20 85 1005.5
20260831102725 60 249 3.0 3.0 0.04 0.24 0.20 86 1005.5
20260831102647 60 249 3.0 3.0 0.04 0.24 0.20 86 1005.5
20260831101957 60 249 3.0 3.0 0.06 0.24 0.20 86 1005.4
20260831101716 60 249 3.0 3.0 0.06 0.26 0.20 86 1005.5
20260831101255 60 249 3.0 3.0 0.04 0.24 0.18 86 1005.5
20260831100554 60 249 3.0 3.0 0.04 0.24 0.18 86 1005.5
20260831100518 60 249 3.0 3.0 0.04 0.24 0.18 86 1005.5
20260831095852 60 249 3.0 3.0 0.06 0.24 0.18 86 1005.5
20260831095416 60 249 3.0 3.0 0.06 0.24 0.18 86 1005.5
20260831095151 60 249 3.0 3.0 0.06 0.24 0.18 86 1005.5
20260831094448 61 249 3.0 3.0 0.04 0.22 0.16 86 1005.5
20260831094325 61 249 3.0 3.0 0.04 0.22 0.16 86 1005.5
20260831093746 61 249 3.0 3.0 0.06 0.22 0.16 86 1005.6
20260831093223 60 249 3.0 3.0 0.06 0.22 0.16 86 1005.5
20260831093057 60 249 3.0 3.0 0.06 0.22 0.16 86 1005.5
20260831092354 60 249 3.0 3.0 0.06 0.22 0.16 86 1005.6
20260831092119 60 249 3.0 3.0 0.04 0.20 0.14 86 1005.6
20260831091652 60 249 3.0 3.0 0.04 0.20 0.14 86 1005.6
20260831090950 60 249 3.0 3.0 0.04 0.20 0.14 86 1005.5
20260831090249 60 249 3.0 3.0 0.06 0.20 0.14 86 1005.6
20260831085925 60 249 3.0 3.0 0.04 0.18 0.12 86 1005.6
20260831085547 60 249 3.0 3.0 0.04 0.18 0.12 86 1005.6
20260831084856 60 249 3.0 3.0 0.04 0.18 0.12 86 1005.6
20260831084823 60 249 3.0 3.0 0.04 0.18 0.12 86 1005.6
20260831084154 60 249 3.0 3.0 0.04 0.18 0.12 86 1005.6
20260831083718 60 249 3.0 3.0 0.02 0.16 0.10 86 1005.6
20260831083452 60 249 3.0 3.0 0.02 0.16 0.10 86 1005.6
20260831082751 60 249 3.0 3.0 0.02 0.16 0.10 86 1005.7
20260831082616 60 249 3.0 3.0 0.04 0.16 0.10 86 1005.7
20260831082050 60 249 3.0 3.0 0.04 0.16 0.10 86 1005.7
20260831081526 60 249 3.0 3.0 0.04 0.16 0.10 86 1005.7
20260831081347 60 249 3.0 3.0 0.04 0.16 0.10 86 1005.8
20260831080647 60 249 3.0 3.0 0.02 0.14 0.08 86 1005.8
20260831080424 60 249 3.0 3.0 0.02 0.14 0.08 86 1005.8
20260831075957 60 249 3.0 3.0 0.04 0.14 0.08 86 1005.8
20260831075254 60 249 3.0 3.0 0.04 0.14 0.08 86 1005.9
20260831074553 60 249 3.0 3.0 0.04 0.14 0.08 86 1005.9
20260831074217 60 249 3.0 3.0 0.04 0.14 0.08 86 1005.9
20260831073850 60 249 3.0 3.0 0.04 0.14 0.08 86 1005.9
20260831073126 60 249 3.0 3.0 0.04 0.14 0.08 86 1005.9
20260831072447 60 249 3.0 3.0 0.02 0.12 0.06 86 1006.0
20260831072022 60 249 3.0 3.0 0.02 0.12 0.06 86 1006.1
20260831071756 60 249 3.0 3.0 0.02 0.12 0.06 86 1006.1
20260831071054 60 249 3.0 3.0 0.02 0.12 0.06 86 1006.1
20260831070919 60 249 3.0 3.0 0.02 0.12 0.06 86 1006.1
20260831070353 60 249 3.0 3.0 0.02 0.12 0.06 86 1006.1
20260831065817 60 249 3.0 3.0 0.00 0.10 0.04 86 1006.2
20260831065651 60 249 3.0 3.0 0.00 0.10 0.04 86 1006.2
20260831064949 59 249 3.0 3.0 0.00 0.10 0.04 86 1006.2
20260831064724 59 249 3.0 3.0 0.00 0.10 0.04 86 1006.3
20260831064258 59 249 3.0 3.0 0.00 0.10 0.04 86 1006.2
20260831063555 59 249 3.0 3.0 0.00 0.10 0.04 86 1006.3
20260831062853 59 249 0.0 0.0 0.00 0.10 0.04 86 1006.2
20260831062518 60 249 0.0 0.0 0.00 0.10 0.04 86 1006.2
20260831062152 60 249 0.0 0.0 0.00 0.10 0.04 86 1006.2
20260831061451 59 248 2.0 3.0 0.00 0.10 0.04 86 1006.2
20260831061428 59 249 2.0 3.0 0.00 0.10 0.04 86 1006.3
20260831060749 59 249 1.0 1.0 0.00 0.10 0.04 86 1006.3
20260831060326 59 249 1.0 2.0 0.00 0.10 0.04 86 1006.3
20260831060047 59 248 2.0 5.0 0.00 0.10 0.04 86 1006.4
20260831055357 59 248 1.0 3.0 0.00 0.10 0.04 86 1006.4
20260831055222 59 248 1.0 7.0 0.00 0.10 0.04 86 1006.4
20260831054655 59 249 1.0 3.0 0.00 0.10 0.04 86 1006.4
20260831054119 59 248 2.0 3.0 0.00 0.10 0.04 86 1006.4
20260831054005 59 248 3.0 6.0 0.00 0.10 0.04 86 1006.5
20260831053250 59 248 1.0 5.0 0.00 0.10 0.04 86 1006.5
20260831053027 59 248 2.0 8.0 0.00 0.10 0.04 86 1006.6
20260831052549 59 248 1.0 7.0 0.00 0.10 0.04 86 1006.6
20260831051858 59 248 1.0 3.0 0.00 0.10 0.04 86 1006.6
20260831051155 59 248 1.0 7.0 0.00 0.10 0.04 86 1006.7
20260831050453 58 248 6.0 8.0 0.00 0.10 0.04 86 1006.7
20260831045750 59 248 1.0 5.0 0.00 0.10 0.04 86 1006.9
20260831045049 58 248 1.0 3.0 0.00 0.10 0.04 86 1006.9
20260831044347 58 248 0.0 0.0 0.00 0.10 0.04 86 1007.0
20260831043656 58 248 1.0 5.0 0.00 0.10 0.04 86 1007.0
20260831042954 58 248 1.0 1.0 0.00 0.10 0.04 86 1007.1
20260831042252 58 248 1.0 2.0 0.00 0.10 0.04 86 1007.2
20260831041549 58 248 1.0 3.0 0.00 0.10 0.04 86 1007.2
20260831040847 58 248 3.0 8.0 0.00 0.10 0.04 86 1007.3
20260831040156 58 248 1.0 5.0 0.00 0.10 0.04 86 1007.3
20260831035453 58 248 3.0 2.0 0.00 0.10 0.04 86 1007.2
20260831034752 58 248 2.0 5.0 0.02 0.10 0.04 86 1007.2
20260831034050 58 248 1.0 5.0 0.02 0.10 0.04 86 1007.2
20260831033349 58 248 0.0 2.0 0.02 0.10 0.04 86 1007.3
20260831032647 58 248 1.0 5.0 0.02 0.10 0.04 86 1007.4
20260831031956 58 248 3.0 8.0 0.02 0.10 0.04 86 1007.4
20260831031255 58 248 2.0 5.0 0.02 0.10 0.04 86 1007.6
20260831030555 58 248 2.0 3.0 0.02 0.10 0.04 86 1007.6
20260831025852 58 248 2.0 2.0 0.02 0.10 0.04 86 1007.8
20260831025151 58 248 2.0 5.0 0.02 0.10 0.04 86 1007.8
20260831024448 58 248 0.0 3.0 0.00 0.08 0.02 86 1007.8
20260831023746 58 248 3.0 5.0 0.00 0.08 0.02 86 1008.0
20260831023057 58 248 0.0 2.0 0.00 0.08 0.02 86 1008.0
20260831022355 58 248 0.0 0.0 0.00 0.08 0.02 86 1008.1
20260831021651 58 248 2.0 3.0 0.00 0.08 0.02 86 1008.0
20260831020951 58 248 0.0 5.0 0.00 0.08 0.02 86 1008.1
20260831020248 58 248 1.0 2.0 0.00 0.08 0.02 86 1008.1
20260831015546 58 248 1.0 1.0 0.00 0.08 0.02 86 1008.1
20260831014857 58 248 2.0 5.0 0.00 0.08 0.02 86 1008.1
20260831014156 58 248 2.0 2.0 0.00 0.08 0.02 86 1008.1
20260831013455 58 248 1.0 2.0 0.00 0.08 0.02 86 1008.1
20260831012753 58 248 0.0 3.0 0.00 0.08 0.02 86 1008.2
20260831012051 58 248 0.0 1.0 0.00 0.08 0.02 86 1008.2
20260831011349 57 248 1.0 1.0 0.00 0.08 0.02 86 1008.2
20260831010658 57 248 1.0 0.0 0.00 0.08 0.02 86 1008.3
20260831005956 57 248 1.0 3.0 0.00 0.08 0.02 86 1008.2
20260831005255 57 248 1.0 3.0 0.00 0.08 0.02 86 1008.2
20260831004553 57 248 1.0 2.0 0.00 0.08 0.02 86 1008.3
20260831003851 57 248 0.0 2.0 0.00 0.08 0.02 86 1008.3
20260831003147 57 248 1.0 2.0 0.00 0.08 0.02 86 1008.3
20260831002457 57 248 1.0 2.0 0.00 0.08 0.02 86 1008.3
20260831001755 57 248 1.0 3.0 0.00 0.08 0.02 86 1008.4
20260831001052 57 248 2.0 5.0 0.00 0.08 0.02 86 1008.5
20260831000350 57 248 1.0 2.0 0.00 0.08 0.02 86 1008.6
20260830235649 57 248 1.0 2.0 0.00 0.08 0.02 86 1008.8
20260830234948 57 248 0.0 1.0 0.00 0.08 0.02 86 1008.9
20260830234258 57 248 1.0 2.0 0.00 0.08 0.02 86 1009.0
20260830233555 57 248 1.0 3.0 0.00 0.08 0.02 86 1009.0
20260830232854 57 248 0.0 1.0 0.02 0.08 0.02 86 1009.1
20260830232153 57 248 0.0 0.0 0.02 0.08 0.02 86 1009.1
20260830231452 57 248 0.0 0.0 0.02 0.08 0.02 86 1009.2
20260830230750 56 248 1.0 2.0 0.02 0.08 0.02 86 1009.1
20260830230049 56 248 0.0 0.0 0.02 0.08 0.02 86 1009.1
20260830225347 56 248 1.0 1.0 0.02 0.08 0.02 86 1009.1
20260830224646 56 248 0.0 1.0 0.02 0.08 0.02 86 1009.1
20260830223957 56 248 0.0 2.0 0.02 0.08 0.02 86 1009.1
20260830223255 56 248 1.0 1.0 0.02 0.08 0.02 86 1009.1
20260830222555 56 248 0.0 0.0 0.00 0.06 0.00 86 1009.0
20260830221854 56 248 1.0 3.0 0.00 0.06 0.00 86 1009.1
20260830221152 56 248 0.0 3.0 0.00 0.06 0.00 86 1009.0
20260830220450 56 248 1.0 3.0 0.00 0.06 0.00 86 1009.0
20260830215748 55 248 1.0 2.0 0.00 0.06 0.00 85 1009.0
20260830215057 55 248 0.0 1.0 0.00 0.06 0.00 85 1009.0
20260830214354 55 248 1.0 3.0 0.00 0.06 0.00 85 1009.0
20260830213653 55 248 1.0 1.0 0.00 0.06 0.00 85 1009.0
20260830212951 55 248 0.0 1.0 0.00 0.06 0.00 85 1009.0
20260830212249 55 248 1.0 2.0 0.00 0.06 0.00 85 1009.0
20260830211558 55 248 1.0 2.0 0.00 0.06 0.00 85 1009.0
20260830210855 55 248 0.0 2.0 0.00 0.06 0.00 85 1009.1
20260830210153 55 248 1.0 2.0 0.00 0.06 0.00 85 1009.0
20260830205450 55 248 1.0 1.0 0.00 0.06 0.06 85 1009.0
20260830204748 55 248 1.0 1.0 0.00 0.06 0.06 85 1009.0
20260830204056 55 248 0.0 2.0 0.00 0.06 0.06 85 1008.9
20260830203355 55 248 1.0 3.0 0.00 0.06 0.06 85 1008.9
20260830202653 55 248 1.0 2.0 0.00 0.06 0.06 85 1008.9
20260830201951 55 248 0.0 1.0 0.00 0.06 0.06 85 1008.9
20260830201249 55 248 0.0 1.0 0.00 0.06 0.06 85 1008.8
20260830200547 55 248 0.0 0.0 0.00 0.06 0.06 85 1008.8
20260830195857 55 248 0.0 0.0 0.00 0.06 0.06 85 1008.7
20260830195157 56 248 0.0 1.0 0.00 0.06 0.06 85 1008.7
20260830194454 56 248 0.0 0.0 0.00 0.06 0.06 85 1008.7
20260830193753 56 248 0.0 1.0 0.00 0.06 0.06 85 1008.7
20260830193052 57 248 0.0 1.0 0.00 0.06 0.06 85 1008.6
20260830192350 57 248 1.0 2.0 0.00 0.06 0.06 85 1008.4
20260830191649 56 248 1.0 2.0 0.00 0.06 0.06 85 1008.6
20260830190958 56 248 1.0 2.0 0.00 0.06 0.06 85 1008.5
20260830190256 56 248 1.0 1.0 0.00 0.06 0.06 85 1008.6
20260830185554 56 248 0.0 0.0 0.00 0.06 0.06 85 1008.5
20260830184850 56 248 1.0 3.0 0.00 0.06 0.06 84 1008.5
20260830184148 56 248 1.0 2.0 0.00 0.06 0.06 84 1008.4
20260830183458 57 248 1.0 2.0 0.00 0.06 0.06 84 1008.5
20260830182756 57 248 1.0 1.0 0.00 0.06 0.06 84 1008.4
20260830182054 57 248 1.0 1.0 0.00 0.06 0.06 84 1008.4
20260830181350 57 248 0.0 1.0 0.00 0.06 0.06 84 1008.3
20260830180648 57 248 0.0 2.0 0.00 0.06 0.06 84 1008.3
20260830175957 58 248 1.0 1.0 0.00 0.06 0.06 84 1008.3